TimeCDT,TemperatureF,Dew PointF,Humidity,Sea Level PressureIn,VisibilityMPH,Wind Direction,Wind SpeedMPH,Gust SpeedMPH,PrecipitationIn,Events,Conditions,WindDirDegrees,DateUTC
12:09 AM,64.4,62.6,94,30.04,10.0,SSE,8.1,-,N/A,,Scattered Clouds,160,2013-07-30 05:09:00
12:53 AM,64.9,63.0,93,30.02,10.0,SSE,6.9,-,N/A,,Clear,150,2013-07-30 05:53:00
1:53 AM,64.0,62.1,93,30.02,10.0,South,6.9,-,N/A,,Clear,180,2013-07-30 06:53:00
2:53 AM,64.0,62.1,93,30.02,10.0,SSW,9.2,-,N/A,,Clear,200,2013-07-30 07:53:00
3:11 AM,64.4,62.6,94,30.06,8.0,South,5.8,-,N/A,,Scattered Clouds,190,2013-07-30 08:11:00
3:20 AM,62.6,62.6,100,30.06,7.0,SSE,4.6,-,N/A,,Mostly Cloudy,150,2013-07-30 08:20:00
3:53 AM,64.0,62.1,93,30.04,6.0,South,3.5,-,N/A,,Overcast,190,2013-07-30 08:53:00
4:27 AM,62.6,62.6,100,30.07,5.0,South,3.5,-,N/A,,Scattered Clouds,190,2013-07-30 09:27:00
4:53 AM,62.1,61.0,96,30.04,5.0,South,4.6,-,N/A,,Clear,190,2013-07-30 09:53:00
5:17 AM,60.8,59.0,94,30.07,1.0,Calm,Calm,-,N/A,,Mist,0,2013-07-30 10:17:00
5:24 AM,60.8,60.8,100,30.07,0.5,Calm,Calm,-,N/A,Fog,Fog,0,2013-07-30 10:24:00
5:39 AM,60.8,59.0,94,30.07,1.2,South,3.5,-,N/A,,Partly Cloudy,180,2013-07-30 10:39:00
5:44 AM,60.8,60.8,100,30.07,3.0,SSW,5.8,-,N/A,,Partly Cloudy,200,2013-07-30 10:44:00
5:53 AM,59.0,59.0,100,30.05,4.0,SSW,3.5,-,N/A,,Partly Cloudy,200,2013-07-30 10:53:00
6:22 AM,62.6,60.8,94,30.08,4.0,South,4.6,-,N/A,,Mostly Cloudy,190,2013-07-30 11:22:00
6:26 AM,62.6,62.6,100,30.08,1.8,SSW,4.6,-,N/A,,Mostly Cloudy,200,2013-07-30 11:26:00
6:36 AM,62.6,62.6,100,30.08,0.2,South,4.6,-,N/A,Fog,Fog,190,2013-07-30 11:36:00
6:53 AM,63.0,63.0,100,30.06,0.2,South,5.8,-,N/A,Fog,Fog,190,2013-07-30 11:53:00
7:53 AM,63.0,63.0,100,30.07,0.2,SSW,3.5,-,N/A,Fog,Fog,200,2013-07-30 12:53:00
8:51 AM,64.4,64.4,100,30.10,1.2,Calm,Calm,-,N/A,,Overcast,0,2013-07-30 13:51:00
8:53 AM,64.9,64.0,97,30.07,1.2,Calm,Calm,-,N/A,,Overcast,0,2013-07-30 13:53:00
9:03 AM,64.4,64.4,100,30.10,0.5,East,3.5,-,N/A,Fog,Fog,90,2013-07-30 14:03:00
9:38 AM,64.4,64.4,100,30.11,1.0,Calm,Calm,-,N/A,,Overcast,0,2013-07-30 14:38:00
9:50 AM,66.2,64.4,94,30.11,2.5,East,4.6,-,N/A,,Overcast,80,2013-07-30 14:50:00
9:53 AM,66.0,64.0,93,30.08,3.0,ENE,5.8,-,N/A,,Overcast,70,2013-07-30 14:53:00
10:39 AM,71.6,66.2,83,30.11,10.0,East,6.9,-,N/A,,Scattered Clouds,90,2013-07-30 15:39:00
10:53 AM,72.0,66.0,81,30.08,10.0,ESE,5.8,-,N/A,,Clear,110,2013-07-30 15:53:00
11:53 AM,77.0,66.0,69,30.08,10.0,East,9.2,-,N/A,,Clear,90,2013-07-30 16:53:00
12:53 PM,79.0,66.0,64,30.07,10.0,ENE,11.5,-,N/A,,Clear,70,2013-07-30 17:53:00
1:53 PM,81.0,64.9,58,30.05,10.0,SE,10.4,-,N/A,,Clear,130,2013-07-30 18:53:00
2:53 PM,82.0,66.0,58,30.04,10.0,ESE,9.2,17.3,N/A,,Clear,120,2013-07-30 19:53:00
3:53 PM,80.1,63.0,56,30.02,10.0,ESE,9.2,-,N/A,,Clear,120,2013-07-30 20:53:00
4:53 PM,75.0,62.1,64,30.03,10.0,ENE,11.5,-,N/A,,Scattered Clouds,70,2013-07-30 21:53:00
5:53 PM,70.0,64.9,84,30.06,9.0,East,15.0,-,0.01,Rain,Light Rain,80,2013-07-30 22:53:00
6:53 PM,68.0,64.9,90,30.14,10.0,NE,9.2,-,0.03,Rain-Thunderstorm,Light Rain,40,2013-07-30 23:53:00
7:22 PM,68.0,64.4,88,30.03,7.0,ESE,28.8,35.7,0.02,Rain,Light Rain,120,2013-07-31 00:22:00
7:35 PM,68.0,64.4,88,30.05,10.0,ESE,19.6,36.8,0.02,Rain,Light Rain,120,2013-07-31 00:35:00
7:53 PM,68.0,64.9,90,30.02,10.0,SE,24.2,29.9,0.02,,Partly Cloudy,130,2013-07-31 00:53:00
8:46 PM,66.2,64.4,94,30.07,10.0,NE,15.0,-,N/A,,Clear,50,2013-07-31 01:46:00
8:53 PM,66.9,64.0,90,30.05,10.0,ENE,12.7,-,N/A,,Clear,60,2013-07-31 01:53:00
9:53 PM,64.9,63.0,93,30.08,10.0,East,6.9,-,N/A,,Clear,100,2013-07-31 02:53:00
10:53 PM,63.0,62.1,97,30.11,8.0,East,3.5,-,N/A,,Clear,100,2013-07-31 03:53:00
11:53 PM,63.0,62.1,97,30.12,8.0,Calm,Calm,-,N/A,,Clear,0,2013-07-31 04:53:00